When you browse on this site, cookies collect data to enhance your experience and personalize the content and advertising you see.
Visit our Privacy Policy to learn more. By continuing to use the site, you agree to this use of cookies and data.
  • En España
  • Lista de países
  • Para 7 días
  • Temperatura del agua
  • Mapa Satelital
  • El tiempo en el mapa
  • Informadores
  • user-avatar
    Iniciar sesión

    Tiempo cada hora Onvervaht

    Hoy, 19 Junio, Miércoles

    Tiempo Temperatura Precipitaciones Viento Presión Humedad
    00:00 +22°C° 0 mm 0 mps 759 mmHg 99%
    01:00 +22°C° 0 mm 0 mps 759 mmHg 99%
    02:00 +22°C° 0 mm 0 mps 758 mmHg 99%
    03:00 +24°C° 0 mm 1 mps 758 mmHg 99%
    04:00 +24°C° 0 mm 1 mps 759 mmHg 99%
    05:00 +24°C° 0 mm 1 mps 759 mmHg 99%
    06:00 +25°C° 0 mm 1 mps 759 mmHg 91%
    07:00 +27°C° 0 mm 1 mps 759 mmHg 83%
    08:00 +28°C° 0 mm 1 mps 760 mmHg 75%
    09:00 +30°C° 0 mm 1 mps 760 mmHg 66%
    10:00 +32°C° 0 mm 2 mps 760 mmHg 57%
    11:00 +35°C° 0 mm 2 mps 760 mmHg 49%
    12:00 +32°C° 1.1 mm 2 mps 759 mmHg 64%
    13:00 +30°C° 1.1 mm 1 mps 759 mmHg 78%
    14:00 +28°C° 1.1 mm 1 mps 758 mmHg 93%
    15:00 +28°C° 0.8 mm 1 mps 758 mmHg 94%
    16:00 +28°C° 0.8 mm 1 mps 758 mmHg 95%
    17:00 +27°C° 0.8 mm 1 mps 758 mmHg 95%
    18:00 +27°C° 0.7 mm 1 mps 758 mmHg 96%
    19:00 +26°C° 0.7 mm 1 mps 759 mmHg 97%
    20:00 +26°C° 0.7 mm 1 mps 759 mmHg 98%
    21:00 +25°C° 0.7 mm 1 mps 759 mmHg 98%
    22:00 +25°C° 0.7 mm 1 mps 760 mmHg 98%
    23:00 +25°C° 0.7 mm 1 mps 760 mmHg 98%

    Mañana, 20 Junio, Jueves

    Tiempo Temperatura Precipitaciones Viento Presión Humedad
    00:00 +25°C° 0.7 mm 1 mps 759 mmHg 99%
    01:00 +23°C° 0.7 mm 0 mps 759 mmHg 99%
    02:00 +23°C° 0.7 mm 0 mps 758 mmHg 99%
    03:00 +23°C° 0.4 mm 0 mps 758 mmHg 99%
    04:00 +23°C° 0.4 mm 0 mps 759 mmHg 99%
    05:00 +23°C° 0.4 mm 0 mps 759 mmHg 99%
    06:00 +24°C° 0.6 mm 0 mps 759 mmHg 97%
    07:00 +26°C° 0.6 mm 1 mps 760 mmHg 96%
    08:00 +27°C° 0.6 mm 1 mps 760 mmHg 95%
    09:00 +28°C° 1.6 mm 1 mps 760 mmHg 94%
    10:00 +28°C° 1.6 mm 1 mps 760 mmHg 94%
    11:00 +28°C° 1.6 mm 2 mps 760 mmHg 94%
    12:00 +28°C° 1.5 mm 1 mps 760 mmHg 95%
    13:00 +28°C° 1.5 mm 1 mps 759 mmHg 96%
    14:00 +27°C° 1.5 mm 1 mps 759 mmHg 96%
    15:00 +27°C° 0.8 mm 1 mps 759 mmHg 97%
    16:00 +27°C° 0.8 mm 1 mps 758 mmHg 97%
    17:00 +27°C° 0.8 mm 1 mps 758 mmHg 97%
    18:00 +26°C° 0.6 mm 1 mps 759 mmHg 98%
    19:00 +26°C° 0.6 mm 1 mps 759 mmHg 98%
    20:00 +25°C° 0.6 mm 1 mps 760 mmHg 99%
    21:00 +25°C° 0.6 mm 1 mps 760 mmHg 99%
    22:00 +25°C° 0.6 mm 1 mps 760 mmHg 99%
    23:00 +25°C° 0.6 mm 1 mps 761 mmHg 99%

    Pasado mañana, 21 Junio, Viernes

    Tiempo Temperatura Precipitaciones Viento Presión Humedad
    00:00 +25°C° 0.4 mm 1 mps 760 mmHg 99%
    01:00 +24°C° 0.4 mm 1 mps 760 mmHg 99%
    02:00 +24°C° 0.4 mm 1 mps 759 mmHg 99%
    03:00 +24°C° 1.9 mm 1 mps 759 mmHg 99%
    04:00 +24°C° 1.9 mm 1 mps 759 mmHg 99%
    05:00 +24°C° 1.9 mm 1 mps 760 mmHg 99%
    06:00 +24°C° 0.6 mm 1 mps 760 mmHg 98%
    07:00 +25°C° 0.6 mm 1 mps 760 mmHg 96%
    08:00 +25°C° 0.6 mm 1 mps 761 mmHg 95%
    09:00 +27°C° 0 mm 1 mps 761 mmHg 85%
    10:00 +28°C° 0 mm 1 mps 761 mmHg 75%
    11:00 +30°C° 0 mm 1 mps 761 mmHg 65%
    12:00 +31°C° 0 mm 1 mps 760 mmHg 61%
    13:00 +32°C° 0 mm 1 mps 760 mmHg 58%
    14:00 +32°C° 0 mm 1 mps 759 mmHg 54%
    15:00 +31°C° 0 mm 1 mps 759 mmHg 61%
    16:00 +30°C° 0 mm 1 mps 759 mmHg 68%
    17:00 +29°C° 0 mm 1 mps 758 mmHg 75%
    18:00 +28°C° 0 mm 1 mps 759 mmHg 81%
    19:00 +27°C° 0 mm 1 mps 760 mmHg 87%
    20:00 +25°C° 0 mm 1 mps 760 mmHg 93%
    21:00 +25°C° 0 mm 1 mps 761 mmHg 94%
    22:00 +25°C° 0 mm 1 mps 761 mmHg 95%
    23:00 +24°C° 0 mm 1 mps 761 mmHg 96%

    22 Junio, Sábado

    Tiempo Temperatura Precipitaciones Viento Presión Humedad
    00:00 +22°C° 0 mm 0 mps 761 mmHg 97%
    01:00 +22°C° 0 mm 0 mps 760 mmHg 97%
    02:00 +22°C° 0 mm 0 mps 759 mmHg 97%
    03:00 +24°C° 0 mm 1 mps 760 mmHg 96%
    04:00 +24°C° 0 mm 1 mps 760 mmHg 95%
    05:00 +24°C° 0 mm 1 mps 760 mmHg 94%
    06:00 +25°C° 0 mm 1 mps 760 mmHg 89%
    07:00 +27°C° 0 mm 1 mps 760 mmHg 82%
    08:00 +28°C° 0 mm 1 mps 761 mmHg 75%
    09:00 +30°C° 0.1 mm 1 mps 761 mmHg 69%
    10:00 +31°C° 0.1 mm 1 mps 761 mmHg 64%
    11:00 +34°C° 0.1 mm 2 mps 761 mmHg 59%
    12:00 +32°C° 0.8 mm 2 mps 760 mmHg 65%
    13:00 +31°C° 0.8 mm 2 mps 759 mmHg 72%
    14:00 +31°C° 0.8 mm 2 mps 758 mmHg 78%
    15:00 +30°C° 1 mm 1 mps 758 mmHg 83%
    16:00 +29°C° 1 mm 1 mps 758 mmHg 89%
    17:00 +28°C° 1 mm 1 mps 758 mmHg 94%
    18:00 +27°C° 0.6 mm 1 mps 759 mmHg 95%
    19:00 +26°C° 0.6 mm 1 mps 759 mmHg 96%
    20:00 +25°C° 0.6 mm 1 mps 760 mmHg 98%
    21:00 +25°C° 0.1 mm 1 mps 760 mmHg 98%
    22:00 +25°C° 0.1 mm 1 mps 760 mmHg 98%
    23:00 +25°C° 0.1 mm 1 mps 761 mmHg 98%

    23 Junio, Domingo

    Tiempo Temperatura Precipitaciones Viento Presión Humedad
    00:00 +25°C° 0 mm 1 mps 760 mmHg 98%
    01:00 +24°C° 0 mm 1 mps 760 mmHg 99%
    02:00 +24°C° 0 mm 1 mps 759 mmHg 99%
    03:00 +24°C° 0 mm 1 mps 759 mmHg 99%
    04:00 +24°C° 0 mm 1 mps 759 mmHg 99%
    05:00 +24°C° 0 mm 1 mps 759 mmHg 99%
    06:00 +25°C° 0 mm 1 mps 759 mmHg 95%
    07:00 +26°C° 0 mm 1 mps 760 mmHg 92%
    08:00 +27°C° 0 mm 1 mps 760 mmHg 89%
    09:00 +29°C° 0 mm 1 mps 760 mmHg 78%
    10:00 +31°C° 0 mm 2 mps 760 mmHg 68%
    11:00 +34°C° 0 mm 2 mps 760 mmHg 58%
    12:00 +32°C° 0.6 mm 2 mps 759 mmHg 63%
    13:00 +32°C° 0.6 mm 2 mps 758 mmHg 68%
    14:00 +31°C° 0.6 mm 2 mps 758 mmHg 74%
    15:00 +30°C° 1 mm 1 mps 758 mmHg 81%
    16:00 +29°C° 1 mm 1 mps 757 mmHg 88%
    17:00 +28°C° 1 mm 1 mps 757 mmHg 95%
    18:00 +27°C° 0.5 mm 1 mps 758 mmHg 96%
    19:00 +26°C° 0.5 mm 1 mps 758 mmHg 97%
    20:00 +25°C° 0.5 mm 1 mps 759 mmHg 98%
    21:00 +25°C° 0.3 mm 1 mps 759 mmHg 98%
    22:00 +25°C° 0.3 mm 1 mps 759 mmHg 98%
    23:00 +25°C° 0.3 mm 1 mps 759 mmHg 99%

    24 Junio, Lunes

    Tiempo Temperatura Precipitaciones Viento Presión Humedad
    00:00 +24°C° 0.1 mm 1 mps 759 mmHg 99%
    01:00 +22°C° 0.1 mm 0 mps 758 mmHg 99%
    02:00 +22°C° 0.1 mm 0 mps 757 mmHg 99%
    03:00 +22°C° 0 mm 0 mps 757 mmHg 99%
    04:00 +22°C° 0 mm 0 mps 757 mmHg 99%
    05:00 +22°C° 0 mm 0 mps 757 mmHg 99%
    06:00 +25°C° 0 mm 1 mps 758 mmHg 96%
    07:00 +26°C° 0 mm 1 mps 758 mmHg 94%
    08:00 +27°C° 0 mm 1 mps 759 mmHg 91%
    09:00 +27°C° 0.2 mm 1 mps 759 mmHg 89%
    10:00 +28°C° 0.2 mm 1 mps 759 mmHg 86%
    11:00 +28°C° 0.2 mm 1 mps 759 mmHg 83%
    12:00 +29°C° 0.2 mm 1 mps 758 mmHg 79%
    13:00 +30°C° 0.2 mm 1 mps 757 mmHg 76%
    14:00 +30°C° 0.2 mm 1 mps 757 mmHg 72%
    15:00 +30°C° 0.4 mm 1 mps 756 mmHg 76%
    16:00 +29°C° 0.4 mm 1 mps 756 mmHg 80%
    17:00 +29°C° 0.4 mm 1 mps 756 mmHg 84%
    18:00 +27°C° 0.1 mm 1 mps 756 mmHg 87%
    19:00 +26°C° 0.1 mm 1 mps 757 mmHg 91%
    20:00 +25°C° 0.1 mm 1 mps 757 mmHg 94%
    21:00 +25°C° 0.1 mm 1 mps 758 mmHg 96%
    22:00 +25°C° 0.1 mm 1 mps 758 mmHg 97%
    23:00 +24°C° 0.1 mm 1 mps 758 mmHg 98%
    Mostrar más